CZ-6A DEB, 54525

Orbit data source: Space-Track

CZ-6A DEB, 54525 is space debris in SSO originally from a launch on Fri, 11 Nov 2022 UTC launched from the Taiyaun Space Center, China (TSC). Debris objects in space refer to the collection of defunct objects orbiting the Earth. Examples of debris include non-operational satellites, rocket bodies, and fragments generated from explosions, collisions, or faulty payload assembly.

Loading next visibility...
Identifier
54525, 2022-151KD
Orbit
SSO
Country
Flag of CNCN / PRC
Related business
Manufacturer
SAST
Mission
Spacecraft
Bus & Motor
Unknown
Mass
Unknown
Launch date (UTC)
2022-11-11 (3 years ago)
Launch vehicle
Unknown
Launch site
Taiyaun Space Center, China (TSC)
Object type
Payload
Rocket body
Debris
Shape & HBR
Unknown shape, 0.2 m
Radar Cross Section
Small (<0.1 m²)

Expand to show TLE details & history
Last TLE update: 10 hours ago

TLE from 10 hours ago
0 CZ-6A DEB
1 54525U 22151KD  26130.21086079 -.00000036  00000-0  39296-5 0  9991
2 54525  98.8579 120.7149 0070070 122.4952 238.3014 14.05471085178813
Epoch: 2026-05-10T05:03Z
TLE epoch observation values (Epoch: 2026-05-10T05:03:38.372Z)
Latitude
0.00002°
Longitude
176.78781°
Altitude
904.768 km
Speed
7.386 km/s
True Right ascension
08h 02m 51s
True Declination
0° 00' 00"
Sunlit
Object was in daylight at epoch
Visualization orbit readout
Latitude
Unknown
Longitude
Unknown
Altitude
Unknown
Speed
Unknown
Apparent Right ascension
Unknown
Apparent Declination
Unknown
Sunlit
N/A
Visualization observer readout
Local Sidereal Time
22:57:45
Azimuth
Unknown
Elevation
Unknown
Doppler factor
Unknown
Orbital elements
Apogee altitude
922.899 km
Perigee altitude
821.294 km
Semi-major axis
7,250.233 km
Eccentricity
0.00701
Inclination
98.8579°
RAAN
120.7149°
Arg. of periapsis
122.4952°
True anomaly
237.62138°
Mean anomaly
238.3014°
Eccentric anomaly
237.96108°
Mean motion
3.51573 °/min
Orbital period
102.4 mins
BSTAR
0.0000039296
Loading maneuver chart data...
Computing Atmospheric mass density...

Documentation

Showing up to 5 results
|